Location: *
(55.5817°S, 142.4781°W)
Time: 09:38:26
(UTC+00:00)

Cosmos 2227 Rocket - Pass Details

Date: 29 April 2025
Orbit: 838 x 843 km, 71.0° (Epoch: 19 May)

Event Time Altitude Azimuth Distance (km) Brightness Sun altitude
Exits shadow 12:32:55 22° 63° (ENE) 1,778 4.1 -35.8°
Drops below altitude 10° 12:34:56 10° 55° (NE) 2,478 4.9 -35.6°
Sets 12:37:26 0° 50° (NE) 3,406 5.6 -35.3°
